Simultaneous Nadir Overpasses (SNOs) Predictions

Prediction of SNOs between FY3D and NOAA-19 Satellite Orbit:

Table of predicted SNOs for the next 14.0 days since TLE Epoch: 8/28/2021
Index Date (FY3D) Time (FY3D) Lat,Lon (FY3D) SZA (FY3D ) Date (NOAA-19) Time (NOAA-19) Lat,Lon (NOAA-19) SZA (NOAA-19 ) Distance(km) Time Diff (sec)
1 09/10/2021 03:35:09 78.24, 103.67 74.17 09/10/2021 03:33:54 78.26, 103.72 74.21 2.37 75
2 09/10/2021 04:25:53 -78.24, -89.03 105.82 09/10/2021 04:24:53 -78.25, -89.06 105.79 1.26 60
3 09/10/2021 05:16:38 78.24, 78.28 74.20 09/10/2021 05:15:54 78.27, 78.28 74.24 2.71 44
4 09/10/2021 06:07:22 -78.24,-114.42 105.79 09/10/2021 06:06:53 -78.26,-114.50 105.76 2.58 29
5 09/10/2021 06:58:07 78.24, 52.89 74.23 09/10/2021 06:57:54 78.28, 52.84 74.27 3.59 13
6 09/10/2021 07:48:52 -78.29,-140.03 105.70 09/10/2021 07:48:53 -78.27,-139.95 105.73 2.67 1
7 09/10/2021 08:39:37 78.29, 27.28 74.32 09/10/2021 08:39:54 78.28, 27.40 74.30 2.72 17
8 09/10/2021 09:30:21 -78.29,-165.41 105.67 09/10/2021 09:30:53 -78.28,-165.39 105.70 1.46 32
9 09/10/2021 10:21:06 78.29, 1.90 74.35 09/10/2021 10:21:54 78.29, 1.96 74.33 1.61 48
10 09/10/2021 11:11:50 -78.29, 169.20 105.64 09/10/2021 11:12:53 -78.29, 169.17 105.67 1.04 63
11 09/10/2021 12:02:40 78.49, -24.62 74.64 09/10/2021 12:03:49 78.48, -22.31 74.44 51.29 69



Historial Predications of SNOs between FY3D and NOAA-19
